Location: Góry Miechowskie
(50.3599°N, 20.1803°E)
Time: 03:27:30
(UTC+00:00)

Cosmos 2228 - Pass Details

Date: 19 September 2024
Orbit: 574 x 600 km, 82.5° (Epoch: 11 October)

Event Time Altitude Azimuth Distance (km) Brightness Sun altitude
Exits shadow 03:01:39 11° 296° (WNW) 1,852 5.1 -13.3°
Maximum altitude 03:01:57 11° 300° (WNW) 1,849 5.1 -13.2°
Drops below altitude 10° 03:03:22 10° 320° (NW) 1,944 5.4 -13.0°
Sets 03:07:12 0° 354° (N) 2,861 6.6 -12.5°
